Location: Tucson
(32.2217°N, 110.9265°W)
Time: 17:54:48
(UTC-07:00)

N. Korean satellite - Pass Details

Date: 06 October 2021
Orbit: 450 x 495 km, 97.3° (Epoch: 22 October)

Event Time Altitude Azimuth Distance (km) Brightness Sun altitude
Rises 05:31:25 0° 12° (NNE) 2,565 10.4 -11.4°
Reaches altitude 10° 05:33:29 10° 13° (NNE) 1,685 9.5 -10.9°
Maximum altitude 05:37:07 83° 100° (E) 501 6.7 -10.2°
Drops below altitude 10° 05:40:45 10° 190° (S) 1,683 9.2 -9.4°
Sets 05:42:49 0° 191° (S) 2,562 10.1 -9.0°
